Location: Devargunta
(16.7631°N, 80.9077°E)
Time: 07:04:10
(UTC+00:00)

Cosmos 540 Rocket - Pass Details

Date: 23 May 2021
Orbit: 740 x 753 km, 74.1° (Epoch: 21 June)

Event Time Altitude Azimuth Distance (km) Brightness Sun altitude
Rises 23:21:13 0° 163° (SSE) 3,177 6.6 -10.0°
Reaches altitude 10° 23:24:05 10° 148° (SSE) 2,253 6.0 -9.4°
Maximum altitude 23:27:53 21° 99° (E) 1,618 6.0 -8.6°
Drops below altitude 10° 23:31:39 10° 51° (NE) 2,250 7.4 -7.8°
Sets 23:34:30 0° 36° (NE) 3,172 7.9 -7.2°
